This is the latest recevied weather packets stored in our database for station/object NK0Z-13. If no packets are shown the sender has not sent any weather packets the latest 1 day(s).
| Time | Temp. | Humidity | Pressure | Rain* | Wind** | Luminosity | Snow |
|---|---|---|---|---|---|---|---|
| 1777996181 | 10.56° C | 68% | 1015.1 hPa | 0 mm | 2.68 m/s, 78° | 175 W/m² | - |
| 1777995579 | 10.56° C | 68% | 1014.7 hPa | 0 mm | 2.68 m/s, 106° | 156 W/m² | - |
| 1777994974 | 10.56° C | 69% | 1014.4 hPa | 0 mm | 3.13 m/s, 46° | 153 W/m² | - |
| 1777994371 | 10° C | 70% | 1014 hPa | 0 mm | 3.13 m/s, 78° | 132 W/m² | - |
| 1777993771 | 10° C | 68% | 1013.8 hPa | 0 mm | 4.02 m/s, 115° | 94 W/m² | - |
| 1777993167 | 10.56° C | 68% | 1013.8 hPa | 0 mm | 2.24 m/s, 46° | 92 W/m² | - |
| 1777992563 | 10.56° C | 67% | 1013.6 hPa | 0 mm | 1.34 m/s, 92° | 96 W/m² | - |
| 1777991958 | 10.56° C | 62% | 1013.6 hPa | 0 mm | 0.89 m/s, 50° | 111 W/m² | - |
| 1777991358 | 10.56° C | 63% | 1013.6 hPa | 0 mm | 5.36 m/s, 32° | 110 W/m² | - |
| 1777990753 | 10.56° C | 63% | 1013.4 hPa | 0 mm | 3.13 m/s, 31° | 78 W/m² | - |
| 1777990153 | 10.56° C | 63% | 1013.2 hPa | 0 mm | 3.58 m/s, 41° | 72 W/m² | - |
| 1777989552 | 10.56° C | 64% | 1013.1 hPa | 0 mm | 4.02 m/s, 42° | 84 W/m² | - |
| 1777988951 | 10.56° C | 64% | 1013.3 hPa | 0 mm | 3.13 m/s, 69° | 83 W/m² | - |
| 1777988349 | 10.56° C | 65% | 1013.1 hPa | 0 mm | 3.58 m/s, 11° | 93 W/m² | - |
| 1777987748 | 10.56° C | 63% | 1013.3 hPa | 0 mm | 2.24 m/s, 14° | 45 W/m² | - |
| 1777987149 | 10.56° C | 62% | 1012.9 hPa | 0 mm | 1.34 m/s, 102° | 68 W/m² | - |
| 1777986543 | 11.11° C | 60% | 1012.5 hPa | 0 mm | 2.68 m/s, 95° | 39 W/m² | - |
| 1777985944 | 11.11° C | 60% | 1012.1 hPa | 0 mm | 2.68 m/s, 85° | 17 W/m² | - |
| 1777985343 | 10.56° C | 61% | 1012.1 hPa | 0 mm | 2.68 m/s, 9° | 35 W/m² | - |
| 1777984742 | 10.56° C | 60% | 1012.1 hPa | 0 mm | 3.13 m/s, 65° | 21 W/m² | - |
| 1777984140 | 10.56° C | 59% | 1012 hPa | 0 mm | 2.24 m/s, 71° | 33 W/m² | - |
| 1777983540 | 10.56° C | 60% | 1011.7 hPa | 0 mm | 2.24 m/s, 54° | 20 W/m² | - |
| 1777982938 | 10.56° C | 60% | 1011.4 hPa | 0 mm | 3.13 m/s, 73° | 11 W/m² | - |
| 1777982334 | 10.56° C | 60% | 1011.8 hPa | 0 mm | 2.68 m/s, 22° | 7 W/m² | - |
| 1777981729 | 11.11° C | 59% | 1011.4 hPa | 0 mm | 2.68 m/s, 81° | 3 W/m² | - |
* Rain latest hour (hover to see other rain measurements)
** Current wind speed in m/s (hover to see current wind gust speed)